Погода в Дерне

Ливия     32°45′10″N   22°38′23″E
темп.,
°C
ветер,
м/с
пор.,
м/с
влажн.,
%
обл.,
%
осадки,
мм/ч
давл.,
гПа
погр.,
м
3 марта, ср
ср323:00+13с996715 0.1 1028939
02:00+13с1011638 0.1 10271035
05:00+13с1012620 0.0 10271254
08:00+13с1113590 0.0 10271427
11:00+14с1113571 0.0 10281892
14:00+14с1112622 0.1 10271632
17:00+13ссз11136549 0.0 10261457
20:00+13с10126861 0.1 10261299
4 марта, чт
чт423:00+14с10126985 0.0 10271173
02:00+14с9117043 0.0 1025960
05:00+14ссз787042 0.0 1024885
08:00+13сз787223 0.0 1024961
11:00+14сз88700 0.0 1025865
14:00+14сз78670 0.0 1023860
17:00+15сз910670 0.0 1022767
20:00+14ссз78730 0.0 1023796
5 марта, пт
пт523:00+14ссз45620 0.0 1023604
02:00+14сз22610 0.0 1023412
05:00+13ю116157 0.0 1022215
08:00+13ю456535 0.0 1022224
11:00+16ююв565570 0.0 1022763
14:00+18ю464878 0.0 1020335
17:00+19вюв2450100 0.0 1019383
20:00+16юв796974 0.0 1020304
6 марта, сб
сб623:00+16юв697327 0.0 1020242
02:00+16ю6104764 0.0 1019167
05:00+16ю6114435 0.0 1019271
08:00+16ю7114417 0.0 1019276
11:00+19ю79410 0.0 1020202
14:00+21ю35410 0.0 1018264
17:00+21вюв12460 0.0 1017373
20:00+18сз33590 0.0 101839
7 марта, вс
вс723:00+17сз44580 0.0 101943
02:00+17сз45710 0.0 101876
05:00+16ссз34800 0.0 101886
08:00+16ссз56830 0.0 1019350
11:00+17ссз66750 0.0 1019466
14:00+16ссз77760 0.0 1018450
17:00+16ссз67760 0.0 1017472
20:00+16ссз55770 0.0 1018432